Hourly Data Report for November 14, 2017

All times are specified in Local Standard Time (LST). Add 1 hour to adjust for Daylight Saving Time where and when it is observed.

MAYO A
YUKON TERRITORY

63°36'59.000" N
135°52'06.000" W
503.80 m
2100701
71965
YMA

Download Data

Hourly Data (November 2017)
Hourly Data Report for November 14, 2017
Temp Definition
°C
Dew Point Temp Definition
°C
Rel Hum Definition
%
Wind Dir Definition
10's deg

Wind Spd Definition
km/h
Visibility Definition
km
Stn Press Definition
kPa
Hmdx Definition


Wind Chill Definition


Weather Definition


TIME
00:00 Legend Double Dagger -24.7 -27.5 78 36 2 24.1 96.34   -27 Snow
01:00 Legend Double Dagger -25.6 -28.5 77 36 2 16.1 96.39   -28 Snow
02:00 Legend Double Dagger -26.3 -29.2 77 36 1 24.1 96.43   -27 Snow
03:00 Legend Double Dagger -25.0 -27.9 78 36 1 24.1 96.47   -26 Snow
04:00 Legend Double Dagger -24.4 -27.2 78 0 1 24.1 96.52   -25 Snow
05:00 Legend Double Dagger -23.8 -26.6 78 36 1 24.1 96.53   -25 Snow
06:00 Legend Double Dagger -23.9 -26.6 79 36 1 24.1 96.58   -25 Snow
07:00 Legend Double Dagger -24.1 -26.9 78 36 1 24.1 96.62   -25 Snow
08:00 Legend Double Dagger -24.7 -27.4 78 36 1 24.1 96.66   -26 Snow
09:00 Legend Double Dagger -25.0 -27.8 78 36 1 32.2 96.68   -26 Snow
10:00 Legend Double Dagger -25.1 -28.0 78 36 2 32.2 96.71   -27 Cloudy
11:00 Legend Double Dagger -24.4 -27.3 78 36 2 32.2 96.75   -26 LegendNANA
12:00 Legend Double Dagger -23.4 -26.1 78 36 1 32.2 96.77   -24 LegendNANA
13:00 Legend Double Dagger -22.1 -24.9 78 36 1 32.2 96.77   -23 Cloudy
14:00 Legend Double Dagger -21.0 -23.9 78 36 1 32.2 96.76   -22 LegendNANA
15:00 Legend Double Dagger -21.2 -24.1 78 36 2 32.2 96.76   -23 LegendNANA
16:00 Legend Double Dagger -21.9 -24.4 81 36 1 32.2 96.79   -23 Cloudy
17:00 Legend Double Dagger -21.9 -24.5 80 0 1 24.1 96.79   -23 LegendNANA
18:00 Legend Double Dagger -21.6 -24.2 80 36 2 24.1 96.79   -23 LegendNANA
19:00 Legend Double Dagger -23.2 -25.8 80 36 1 24.1 96.80   -24 Mostly Cloudy
20:00 Legend Double Dagger -24.8 -27.6 78 36 1 24.1 96.83   -26 LegendNANA
21:00 Legend Double Dagger -26.0 -28.8 78 36 1 24.1 96.80   -27 Snow
22:00 Legend Double Dagger -27.5 -30.4 77 36 2 24.1 96.81   -30 Mainly Clear
23:00 Legend Double Dagger -28.9 -31.9 76 36 1 24.1 96.80   -30 LegendNANA

Notes on Data Quality.

Legend

  • E = Estimated
  • M = Missing
  • NA = Not Available
  • ‡ = Partner data that is not subject to review by the National Climate Archives
Date modified: